Temperature
15 15 16 16 16 16 17 17 17 17 17 16 16 16 16 16 16 16 16 17 17 17 17 17 17 18 18 17 17 17 16 16 16 16 16 16 17 17 16 16 16 16 16
15 16 16 16 16 16 17 17 17 17 16 16 16 16 16 16 16 16 16 16 17 17 17 17 18 18 18 18 17 17 17 16 16 16 16 16 16 16 16 16 16 16 16
15 16 16 16 17 17 17 17 17 17 17 16 16 16 16 16 16 16 16 16 16 17 17 17 17 18 18 18 18 17 17 17 16 16 16 16 16 16 16 16 16 16 16
16 16 16 16 17 17 17 17 17 17 17 16 16 16 16 16 16 16 16 16 16 16 17 17 17 17 17 17 17 17 17 17 16 16 16 16 15 15 15 15 16 15 16
16 16 16 16 17 17 17 17 17 17 17 17 16 16 16 15 15 15 15 15 16 16 16 16 16 16 16 17 17 17 17 17 16 16 16 15 15 15 14 15 15 15 15
16 16 16 16 17 17 17 17 16 16 16 16 16 16 15 15 15 15 15 15 15 15 15 15 16 16 16 16 16 16 16 16 16 16 16 15 15 15 14 14 14 15 15
15 16 16 16 16 16 16 16 16 16 16 16 15 15 15 15 14 14 14 14 14 14 14 14 14 14 15 15 15 15 15 16 16 16 16 15 15 15 14 14 14 14 15
15 15 15 15 15 15 15 15 15 15 15 15 15 14 14 14 14 13 13 13 13 13 13 13 13 13 14 14 14 14 15 15 15 15 15 15 15 15 14 14 13 13 13
15 15 15 15 15 15 14 14 14 14 14 14 14 14 13 13 13 13 13 12 12 12 12 12 12 12 13 13 13 13 14 14 14 15 15 15 15 15 14 14 13 13 13
15 15 15 15 14 14 14 14 13 13 13 13 13 13 13 13 13 12 12 12 12 11 11 11 11 11 11 12 12 12 13 13 13 14 14 14 15 14 14 14 13 13 13
15 15 14 14 13 13 13 13 13 13 13 13 13 13 12 12 12 12 12 12 11 11 11 11 11 11 11 11 11 12 12 12 13 13 13 14 14 14 14 14 13 13 13
14 14 13 13 13 13 12 12 12 12 12 12 12 12 12 12 12 12 12 11 11 11 11 10 10 10 10 10 10 11 11 11 12 12 13 13 13 14 14 14 13 13 13
13 13 13 12 12 12 12 11 11 11 11 11 11 11 11 11 11 11 11 11 11 11 10 10 10 10 10 10 10 10 10 11 11 11 12 12 13 13 13 13 13 13 13
13 12 12 11 11 11 11 10 10 10 10 10 10 10 10 10 11 11 11 11 11 11 10 10 10 10 10 9 9 9 9 10 10 11 11 11 12 12 13 13 13 13 13
12 11 11 10 10 10 9 9 9 9 9 9 9 9 9 9 9 10 10 10 10 10 10 10 10 10 9 9 9 9 9 9 9 10 10 11 11 12 12 13 13 13 13
11 10 10 9 9 8 8 7 7 7 7 7 7 7 7 8 8 8 9 9 9 9 10 10 10 9 9 9 9 9 9 9 9 9 9 10 10 11 12 12 12 13 13
10 9 9 8 8 7 7 6 6 6 6 6 6 6 6 6 6 7 7 8 8 8 9 9 9 9 9 9 9 9 9 9 8 9 9 9 10 11 11 12 12 12 13
9 8 8 7 7 6 6 5 5 5 5 5 5 5 5 5 5 6 6 6 7 7 7 8 8 9 9 9 9 9 9 8 8 8 8 9 9 10 11 11 12 12 12
8 7 7 6 6 6 5 5 5 5 5 5 5 5 5 5 5 5 5 6 6 6 6 7 7 8 8 8 9 9 8 8 8 8 8 8 9 9 10 10 11 11 12
7 7 6 6 6 6 5 5 5 5 5 5 5 5 5 4 4 4 5 5 5 5 6 6 6 7 7 8 8 8 8 8 8 8 8 8 8 9 9 10 11 11 12
7 7 6 6 6 6 5 5 5 5 5 5 5 5 5 4 4 4 4 5 5 5 5 5 6 6 7 7 8 8 8 8 8 8 8 8 8 9 9 9 10 11 11
7 6 6 6 6 6 5 5 5 5 5 5 5 5 5 4 4 4 4 4 4 4 5 5 5 6 6 7 7 7 7 7 8 8 8 8 8 8 9 9 10 10 10
6 6 6 6 6 6 5 5 5 5 5 5 5 5 5 5 4 4 4 4 4 4 5 5 5 6 6 6 7 7 7 7 7 8 8 8 8 8 9 9 10 10 10
6 6 6 5 6 6 6 6 6 5 5 5 5 5 5 5 5 4 4 4 4 4 5 5 5 5 6 6 6 7 7 7 7 7 7 7 8 8 8 9 9 9 10
6 6 6 6 6 6 6 6 6 6 6 6 6 6 5 5 5 5 4 4 5 5 5 5 5 5 6 6 6 6 7 7 7 7 7 7 7 8 8 8 9 9 9
6 6 6 6 6 6 6 6 6 6 6 6 6 6 6 5 5 5 5 5 5 5 5 5 5 5 6 6 6 6 7 7 7 7 7 7 7 8 8 8 9 9 9
Wind_Speed
5 6 6 5 4 3 4 3 4 5 4 3 2 3 2 3 2 2 2 4 5 5 5 6 6 6 6 6 6 4 3 3 2 1 2 2 2 3 3 3 2 3 4
6 6 6 5 4 5 5 4 5 5 5 3 2 2 2 2 1 2 3 4 4 4 5 6 6 6 5 5 6 4 3 2 3 3 1 2 3 2 1 1 1 1 2
4 5 5 5 5 5 5 5 4 4 4 4 2 2 2 2 3 4 4 4 3 4 4 6 6 6 6 7 7 6 6 5 3 2 3 2 2 2 2 2 2 3 3
5 5 6 6 5 4 4 3 3 4 4 4 4 4 3 3 3 3 3 5 5 3 2 3 4 5 5 6 6 7 5 5 4 2 2 2 3 2 2 2 2 4 4
5 5 5 5 5 5 4 3 2 2 2 3 4 4 3 1 1 2 4 5 5 5 4 2 2 3 4 5 6 6 6 5 5 4 3 2 2 2 2 3 3 3 4
6 6 6 6 7 6 5 5 3 3 2 0 1 2 2 1 0 1 2 3 3 3 5 4 2 3 4 5 6 7 8 7 6 5 5 4 3 4 4 4 3 3 3
6 7 8 8 8 9 8 7 6 6 5 4 3 3 4 3 3 2 1 1 1 1 3 3 3 3 4 5 6 7 8 9 8 8 6 6 5 4 4 3 3 3 3
7 8 9 9 9 10 10 9 8 8 7 6 6 6 5 4 4 5 4 4 3 3 3 2 2 3 4 4 5 6 7 7 9 10 8 6 7 6 5 4 3 2 2
8 9 9 9 9 10 10 9 9 10 10 9 8 8 7 7 7 7 6 5 5 5 5 4 3 3 3 3 3 4 7 7 8 9 9 7 6 6 6 5 5 4 2
7 8 7 8 8 9 9 10 10 10 11 10 9 9 9 9 9 7 8 8 7 6 6 6 5 5 4 4 3 3 4 6 7 7 8 8 6 6 6 7 6 6 5
8 8 7 8 9 9 9 10 10 11 11 12 11 10 10 10 9 9 10 10 8 8 8 7 7 6 6 5 4 4 4 4 5 6 8 9 7 7 6 7 7 7 6
8 8 8 9 9 10 11 11 11 11 12 12 11 12 12 11 11 11 12 11 11 10 10 9 8 8 7 6 6 6 4 4 4 4 6 7 7 8 7 7 8 7 8
9 8 9 10 11 11 12 12 12 12 13 12 12 12 13 13 13 13 13 12 12 11 11 10 10 10 9 8 7 7 6 6 5 5 5 6 7 8 7 8 8 7 7
10 10 11 11 11 12 12 12 13 13 13 12 12 13 14 14 14 13 12 12 12 12 12 12 12 11 10 9 8 8 7 7 6 6 6 6 7 8 9 8 9 8 8
11 12 12 11 11 12 12 12 13 13 13 13 14 14 14 14 13 13 12 12 12 13 12 12 12 11 10 10 10 9 8 8 7 6 5 6 8 10 9 7 8 9 8
12 12 12 12 12 12 12 13 13 13 13 14 15 15 15 15 14 14 13 12 11 11 11 12 12 12 11 13 15 12 9 8 7 7 6 6 8 9 11 13 12 12 10
13 13 12 12 13 13 13 13 14 14 14 15 16 15 15 15 15 15 14 12 11 11 11 12 12 12 13 16 16 15 10 9 8 8 6 5 6 6 7 9 12 13 14
11 12 12 13 13 14 14 14 15 15 16 16 16 16 16 16 15 14 14 12 10 10 10 11 11 11 13 16 16 15 11 9 9 9 8 7 7 6 7 7 8 9 10
12 12 13 15 14 15 15 15 16 16 16 17 17 16 16 16 16 15 14 12 10 10 10 8 10 11 12 15 16 14 7 8 9 9 8 8 7 9 9 8 8 8 7
11 13 13 14 15 15 14 16 17 17 17 17 17 17 16 16 16 15 13 11 10 11 10 10 9 10 11 13 15 13 7 7 7 6 7 8 8 9 10 9 9 9 8
14 14 15 15 15 15 14 16 17 17 17 17 17 16 15 14 14 13 12 11 10 10 10 10 9 9 10 11 14 13 8 8 7 6 6 5 7 9 11 11 9 10 9
14 13 14 16 15 14 14 16 17 16 16 16 16 15 14 13 11 10 10 10 9 9 9 8 7 6 7 10 11 13 13 11 8 7 6 5 6 6 9 9 9 11 11
14 14 15 16 16 14 14 16 17 16 17 16 16 15 14 11 10 9 9 8 7 7 6 6 6 6 5 7 11 12 14 14 9 6 8 7 6 4 5 9 11 11 9
15 14 15 16 17 16 15 15 16 15 16 16 15 13 12 11 9 7 6 6 5 5 5 6 6 5 5 5 5 6 7 10 9 6 6 6 5 4 4 5 8 8 9
12 13 15 16 18 17 17 16 15 14 15 14 13 12 10 9 8 6 5 4 4 4 5 5 5 5 6 7 10 8 7 7 8 7 5 4 3 3 4 5 6 7 8
14 15 15 16 17 17 17 16 14 14 13 12 12 9 9 8 6 6 4 3 2 4 7 6 5 5 6 6 10 12 10 11 12 9 6 6 5 5 6 7 7 7 8
Wind_Direction
43 33 35 37 35 28 35 11 4 349 343 332 335 318 303 294 296 282 266 255 245 227 205 214 197 186 190 191 182 169 178 194 176 183 294 302 276 261 247 254 257 266 271
33 25 19 20 26 24 26 27 17 359 356 336 301 275 281 289 316 336 337 302 269 243 216 211 203 193 186 183 183 171 165 181 179 169 153 330 334 330 351 310 269 304 311
28 11 8 4 15 20 19 25 16 10 8 355 332 335 348 352 7 7 351 327 298 251 232 215 207 200 191 193 193 183 173 182 196 191 163 170 228 297 318 319 321 322 313
1 2 352 345 353 353 356 11 14 23 26 32 48 53 41 21 355 343 337 342 351 347 298 242 217 208 205 204 201 194 183 168 183 200 207 192 171 188 301 313 314 313 303
332 329 318 314 316 319 322 322 335 11 28 53 73 81 76 50 328 344 357 360 0 6 3 328 260 238 227 219 208 196 195 188 180 180 175 186 201 197 215 272 307 314 297
304 301 301 303 298 296 292 284 286 288 285 358 115 130 137 157 12 358 355 349 345 355 5 357 331 277 253 236 223 210 204 202 196 192 185 177 177 189 199 231 265 294 294
283 286 288 288 284 283 278 274 271 270 265 254 236 219 208 207 215 234 255 277 304 310 333 351 332 300 270 256 236 219 217 208 206 204 203 202 202 182 182 207 244 268 288
277 275 273 273 278 282 285 284 278 275 272 262 254 246 236 228 230 231 230 235 236 242 251 274 295 307 300 280 251 234 225 215 214 214 206 206 211 198 190 191 198 254 277
279 276 278 282 283 286 286 284 282 281 278 271 266 258 248 238 237 237 233 236 238 244 242 244 255 272 290 296 278 246 236 223 218 216 211 211 211 204 205 199 191 197 243
300 298 297 296 293 289 287 287 279 272 271 269 261 259 249 243 240 238 238 238 239 238 242 248 247 251 258 265 280 273 249 232 226 217 212 214 210 205 203 202 201 202 210
303 302 306 305 304 301 297 294 290 283 280 275 270 266 262 255 247 241 240 238 238 236 235 238 242 245 245 241 239 254 265 250 240 228 217 217 206 204 203 199 198 202 205
299 297 298 302 303 301 298 294 289 285 280 278 276 272 269 264 257 251 246 238 235 234 232 232 234 240 243 236 231 234 239 243 251 248 232 226 214 209 204 199 202 203 203
305 303 304 303 302 300 298 296 293 290 287 285 281 279 276 270 263 258 252 242 235 234 231 224 227 232 235 235 234 233 229 227 230 241 245 239 222 217 208 203 204 204 203
300 299 298 297 297 297 296 297 296 295 294 292 288 283 279 274 268 263 257 249 239 234 232 227 225 227 228 230 233 232 232 227 225 228 237 242 233 226 215 208 206 199 197
297 296 296 296 295 297 298 298 297 297 297 296 292 288 285 282 278 271 262 253 244 240 232 229 228 226 224 228 226 226 227 225 227 228 234 244 245 238 221 209 203 195 195
296 297 298 299 299 300 300 299 297 296 295 293 292 292 290 287 283 279 272 262 252 243 231 227 226 225 227 224 218 214 219 220 223 232 237 246 251 246 230 217 205 195 193
300 299 299 297 297 297 299 299 296 297 294 292 291 290 289 287 283 282 279 269 261 252 239 230 225 223 225 223 222 219 213 217 221 226 234 248 246 243 237 222 211 207 205
296 297 297 297 296 297 299 297 298 298 296 294 291 290 288 286 282 278 275 270 264 258 249 238 228 225 227 222 223 224 216 217 223 224 226 236 249 241 226 216 209 211 211
293 295 296 298 299 300 302 303 303 301 299 297 294 291 287 284 280 276 271 268 263 259 254 245 231 224 228 221 219 217 207 216 227 229 227 231 243 242 224 211 210 212 215
297 298 300 302 303 305 306 307 306 305 303 301 298 294 288 284 279 274 270 266 258 255 253 245 234 224 225 223 218 208 200 212 224 230 231 232 239 241 221 211 205 209 204
299 302 306 308 308 308 309 309 309 307 307 305 302 298 293 286 279 272 267 263 257 254 248 241 233 224 223 228 221 205 194 204 214 223 227 227 237 242 224 211 210 207 187
307 310 311 312 312 312 313 313 311 310 310 309 307 305 300 293 289 277 270 261 254 249 243 235 232 226 223 224 222 208 201 197 202 214 217 217 224 241 228 212 207 190 177
311 313 314 315 316 316 316 314 313 314 314 314 313 311 307 301 293 284 277 266 250 238 234 227 228 226 219 222 221 211 207 203 202 209 202 203 211 224 226 217 196 182 180
315 315 318 319 320 320 318 313 312 315 318 318 318 316 314 312 306 295 281 265 246 233 226 221 222 222 216 216 211 205 205 203 203 200 192 188 189 199 209 195 190 190 184
314 316 320 320 319 321 319 318 318 320 321 320 320 321 319 316 315 312 301 278 253 233 225 223 215 210 218 219 202 192 192 187 184 170 171 177 182 191 200 192 184 181 175
317 321 322 322 321 321 320 320 322 323 323 324 325 323 323 322 321 321 325 323 283 263 240 230 218 220 226 223 205 201 190 173 162 160 177 186 191 193 196 188 177 174 170
Height
1503 1502 1502 1501 1501 1501 1500 1499 1498 1497 1495 1493 1491 1490 1487 1486 1486 1486 1488 1489 1492 1495 1498 1501 1502 1503 1504 1505 1505 1506 1506 1506 1506 1507 1506 1505 1504 1504 1504 1505 1505 1506 1506
1504 1504 1503 1503 1501 1500 1499 1499 1498 1497 1495 1493 1491 1490 1488 1486 1486 1486 1486 1487 1489 1492 1495 1497 1498 1500 1501 1501 1502 1502 1502 1502 1503 1503 1503 1502 1502 1501 1501 1501 1502 1502 1502
1506 1506 1505 1504 1503 1501 1500 1499 1498 1496 1495 1493 1491 1490 1488 1486 1485 1484 1485 1486 1487 1488 1491 1493 1494 1496 1497 1498 1498 1498 1499 1499 1500 1500 1500 1499 1498 1498 1498 1498 1499 1499 1499
1509 1508 1507 1506 1505 1503 1502 1500 1499 1497 1494 1492 1490 1489 1487 1485 1484 1483 1483 1484 1484 1485 1486 1488 1490 1491 1493 1494 1494 1495 1495 1496 1496 1496 1496 1496 1496 1496 1495 1496 1496 1496 1496
1511 1510 1509 1508 1507 1505 1503 1502 1500 1497 1494 1492 1490 1488 1486 1485 1483 1482 1481 1480 1480 1480 1481 1482 1484 1485 1487 1488 1489 1490 1491 1492 1492 1493 1492 1493 1493 1493 1493 1492 1492 1492 1492
1513 1512 1511 1509 1508 1506 1504 1502 1499 1497 1494 1491 1489 1487 1485 1483 1481 1479 1478 1477 1477 1477 1477 1477 1478 1479 1480 1482 1484 1485 1486 1487 1488 1489 1489 1489 1489 1489 1490 1489 1489 1488 1489
1513 1512 1511 1509 1508 1506 1503 1500 1498 1495 1492 1490 1487 1485 1483 1480 1478 1476 1475 1474 1473 1472 1472 1472 1472 1473 1474 1475 1477 1478 1480 1481 1483 1484 1485 1485 1485 1486 1486 1487 1486 1485 1485
1513 1511 1510 1508 1505 1503 1500 1498 1495 1492 1489 1487 1484 1482 1479 1477 1475 1473 1472 1470 1469 1468 1467 1467 1467 1467 1467 1468 1469 1471 1473 1475 1476 1478 1479 1480 1481 1482 1482 1483 1484 1483 1483
1511 1509 1507 1505 1502 1499 1496 1493 1490 1487 1484 1482 1479 1477 1475 1473 1471 1469 1467 1466 1464 1463 1462 1461 1461 1461 1461 1461 1461 1463 1465 1467 1469 1471 1473 1475 1476 1477 1478 1479 1480 1481 1481
1509 1507 1504 1501 1498 1495 1492 1489 1485 1482 1479 1476 1474 1471 1469 1467 1465 1463 1462 1460 1459 1458 1457 1456 1455 1455 1455 1455 1455 1456 1457 1459 1461 1463 1466 1468 1470 1472 1473 1475 1476 1477 1478
1507 1504 1501 1498 1495 1491 1488 1484 1481 1477 1474 1471 1468 1465 1462 1460 1458 1456 1455 1454 1453 1452 1451 1451 1450 1449 1449 1449 1449 1449 1450 1452 1454 1456 1458 1461 1464 1466 1468 1470 1471 1472 1474
1504 1501 1498 1495 1491 1487 1483 1479 1475 1471 1468 1464 1460 1457 1454 1452 1449 1447 1447 1446 1445 1445 1445 1444 1444 1443 1443 1442 1442 1442 1443 1445 1446 1449 1451 1454 1457 1459 1462 1464 1466 1467 1469
1501 1498 1495 1491 1486 1482 1477 1473 1469 1464 1460 1456 1452 1448 1445 1442 1440 1438 1437 1436 1436 1436 1436 1436 1437 1437 1437 1437 1437 1436 1437 1438 1439 1441 1444 1447 1449 1452 1455 1457 1460 1462 1464
1498 1494 1490 1486 1481 1476 1471 1466 1461 1456 1451 1447 1442 1438 1435 1432 1429 1427 1426 1426 1425 1425 1426 1427 1428 1429 1430 1431 1431 1431 1431 1432 1433 1434 1437 1439 1442 1445 1448 1450 1453 1456 1458
1494 1490 1485 1480 1475 1469 1464 1458 1453 1448 1442 1437 1432 1428 1425 1421 1419 1416 1415 1414 1414 1415 1416 1417 1419 1420 1422 1423 1424 1426 1426 1427 1427 1428 1430 1432 1435 1438 1441 1443 1447 1450 1452
1490 1485 1480 1474 1468 1462 1456 1450 1444 1439 1434 1428 1423 1418 1414 1410 1407 1405 1403 1403 1403 1404 1405 1406 1409 1411 1413 1415 1417 1419 1420 1421 1422 1423 1424 1426 1428 1431 1433 1437 1440 1443 1446
1485 1480 1474 1468 1462 1456 1449 1442 1436 1431 1425 1420 1414 1410 1405 1401 1397 1395 1392 1391 1392 1393 1394 1396 1398 1401 1404 1407 1410 1412 1414 1415 1417 1418 1419 1420 1422 1424 1427 1430 1433 1436 1439
1480 1474 1468 1461 1455 1449 1442 1436 1429 1423 1417 1411 1406 1401 1396 1391 1387 1384 1382 1381 1381 1382 1383 1386 1388 1391 1395 1399 1402 1405 1407 1409 1410 1412 1413 1415 1416 1418 1421 1423 1426 1430 1433
1476 1469 1462 1455 1448 1442 1435 1428 1422 1416 1410 1403 1397 1392 1387 1382 1378 1375 1372 1372 1372 1372 1373 1375 1379 1382 1386 1390 1394 1397 1399 1402 1404 1406 1408 1409 1410 1412 1415 1417 1420 1423 1427
1470 1463 1455 1448 1442 1435 1429 1422 1415 1409 1402 1396 1390 1384 1379 1373 1369 1366 1364 1363 1362 1363 1364 1366 1369 1373 1377 1382 1386 1390 1392 1395 1398 1400 1402 1403 1405 1406 1408 1411 1414 1417 1421
1464 1457 1449 1442 1436 1429 1423 1416 1409 1403 1396 1390 1383 1377 1371 1366 1361 1357 1355 1354 1354 1355 1356 1358 1361 1364 1369 1374 1378 1382 1385 1388 1391 1394 1396 1398 1399 1401 1403 1405 1408 1412 1416
1457 1451 1444 1436 1430 1424 1417 1411 1404 1398 1391 1384 1377 1370 1364 1359 1354 1351 1349 1348 1347 1348 1349 1351 1354 1357 1362 1367 1371 1375 1379 1382 1385 1388 1390 1392 1394 1395 1397 1400 1403 1407 1411
1453 1446 1439 1432 1425 1419 1413 1406 1399 1393 1386 1379 1372 1365 1359 1354 1350 1346 1344 1342 1342 1342 1344 1346 1348 1352 1356 1360 1365 1369 1373 1376 1380 1383 1385 1387 1389 1391 1392 1395 1398 1402 1406
1448 1441 1434 1427 1421 1415 1409 1403 1396 1389 1382 1375 1368 1362 1356 1351 1346 1343 1340 1338 1337 1338 1340 1342 1345 1348 1351 1355 1359 1363 1367 1371 1374 1378 1380 1383 1384 1386 1388 1391 1394 1397 1402
1444 1438 1431 1424 1417 1411 1405 1399 1393 1386 1379 1373 1367 1360 1355 1349 1345 1341 1338 1336 1336 1336 1338 1340 1342 1344 1347 1351 1355 1358 1362 1366 1370 1373 1376 1378 1380 1382 1384 1387 1389 1394 1398
1441 1435 1428 1422 1415 1408 1402 1396 1390 1384 1378 1371 1365 1360 1354 1350 1345 1342 1339 1337 1336 1336 1337 1338 1340 1342 1345 1348 1351 1354 1358 1362 1366 1369 1371 1374 1376 1378 1381 1383 1386 1390 1395